Time,TemperatureF,DewpointF,PressureIn,WindDirection,WindDirectionDegrees,WindSpeedMPH,WindSpeedGustMPH,Humidity,HourlyPrecipIn,Conditions,Clouds,dailyrainin,SoftwareType,DateUTC
2015-07-04 00:03:00,65.0,61.0,-100.00,North,350,0.0,1.0,85,-99.99,,,-99.99,,2015-07-04 04:03:00,
2015-07-04 00:13:00,65.0,61.0,-100.00,WNW,300,0.0,1.0,85,-99.99,,,-99.99,,2015-07-04 04:13:00,
2015-07-04 00:23:00,65.0,61.0,-100.00,WSW,255,1.0,1.0,86,-99.99,,,-99.99,,2015-07-04 04:23:00,
2015-07-04 00:33:00,64.0,60.0,-100.00,SW,235,1.0,2.0,87,-99.99,,,-99.99,,2015-07-04 04:33:00,
2015-07-04 00:53:00,64.0,60.0,-100.00,WSW,245,1.0,2.0,88,-99.99,,,-99.99,,2015-07-04 04:53:00,
2015-07-04 01:04:00,64.0,60.0,-100.00,WSW,250,0.0,1.0,88,-99.99,,,-99.99,,2015-07-04 05:04:00,
2015-07-04 01:13:00,64.0,60.0,-100.00,West,265,0.0,2.0,87,-99.99,,,-99.99,,2015-07-04 05:13:00,
2015-07-04 01:23:00,64.0,60.0,-100.00,West,280,0.0,1.0,87,-99.99,,,-99.99,,2015-07-04 05:23:00,
2015-07-04 01:33:00,64.0,60.0,-100.00,WSW,250,1.0,1.0,88,-99.99,,,-99.99,,2015-07-04 05:33:00,
2015-07-04 01:44:00,64.0,60.0,-100.00,SW,235,0.0,1.0,88,-99.99,,,-99.99,,2015-07-04 05:44:00,
2015-07-04 01:53:00,64.0,60.0,-100.00,SW,225,0.0,0.0,88,-99.99,,,-99.99,,2015-07-04 05:53:00,
2015-07-04 02:03:00,63.0,60.0,-100.00,WSW,250,1.0,3.0,88,-99.99,,,-99.99,,2015-07-04 06:03:00,
2015-07-04 02:13:00,64.0,60.0,-100.00,WSW,240,1.0,3.0,88,-99.99,,,-99.99,,2015-07-04 06:13:00,
2015-07-04 02:23:00,64.0,60.0,-100.00,SW,230,1.0,3.0,88,-99.99,,,-99.99,,2015-07-04 06:23:00,
2015-07-04 02:33:00,64.0,60.0,-100.00,SW,225,1.0,3.0,88,-99.99,,,-99.99,,2015-07-04 06:33:00,
2015-07-04 02:43:00,64.0,60.0,-100.00,SSW,210,0.0,2.0,88,-99.99,,,-99.99,,2015-07-04 06:43:00,
2015-07-04 02:53:00,64.0,60.0,-100.00,SSW,200,0.0,1.0,89,-99.99,,,-99.99,,2015-07-04 06:53:00,
2015-07-04 03:03:00,63.0,60.0,-100.00,WSW,245,1.0,2.0,89,-99.99,,,-99.99,,2015-07-04 07:03:00,
2015-07-04 03:12:00,63.0,60.0,-100.00,WSW,245,1.0,2.0,89,-99.99,,,-99.99,,2015-07-04 07:12:00,
2015-07-04 03:23:00,63.0,60.0,-100.00,SW,230,2.0,3.0,90,-99.99,,,-99.99,,2015-07-04 07:23:00,
2015-07-04 03:33:00,63.0,60.0,-100.00,SW,230,2.0,3.0,90,-99.99,,,-99.99,,2015-07-04 07:33:00,
2015-07-04 03:43:00,63.0,60.0,-100.00,SW,230,2.0,3.0,90,-99.99,,,-99.99,,2015-07-04 07:43:00,
2015-07-04 03:53:00,63.0,61.0,-100.00,SW,230,4.0,5.0,90,-99.99,,,-99.99,,2015-07-04 07:53:00,
2015-07-04 04:03:00,63.0,61.0,-100.00,WSW,240,2.0,6.0,90,-99.99,,,-99.99,,2015-07-04 08:03:00,
2015-07-04 04:12:00,64.0,61.0,-100.00,WSW,255,2.0,4.0,90,-99.99,,,-99.99,,2015-07-04 08:12:00,
2015-07-04 04:23:00,64.0,61.0,-100.00,West,265,1.0,3.0,90,-99.99,,,-99.99,,2015-07-04 08:23:00,
2015-07-04 04:33:00,64.0,61.0,-100.00,West,260,1.0,3.0,90,-99.99,,,-99.99,,2015-07-04 08:33:00,
2015-07-04 04:43:00,63.0,60.0,-100.00,WSW,240,1.0,2.0,90,-99.99,,,-99.99,,2015-07-04 08:43:00,
2015-07-04 04:53:00,63.0,60.0,-100.00,WSW,245,1.0,2.0,90,-99.99,,,-99.99,,2015-07-04 08:53:00,
2015-07-04 05:03:00,63.0,60.0,-100.00,West,265,1.0,3.0,90,-99.99,,,-99.99,,2015-07-04 09:03:00,
2015-07-04 05:12:00,63.0,60.0,-100.00,WSW,245,1.0,2.0,90,-99.99,,,-99.99,,2015-07-04 09:12:00,
2015-07-04 05:23:00,63.0,60.0,-100.00,WSW,245,0.0,2.0,90,-99.99,,,-99.99,,2015-07-04 09:23:00,
2015-07-04 05:33:00,62.0,60.0,-100.00,NW,315,0.0,1.0,90,-99.99,,,-99.99,,2015-07-04 09:33:00,
2015-07-04 05:43:00,62.0,59.0,-100.00,West,265,1.0,2.0,89,-99.99,,,-99.99,,2015-07-04 09:43:00,
2015-07-04 05:53:00,62.0,59.0,-100.00,WSW,255,2.0,3.0,88,-99.99,,,-99.99,,2015-07-04 09:53:00,
2015-07-04 06:04:00,62.0,58.0,-100.00,West,260,3.0,4.0,86,-99.99,,,-99.99,,2015-07-04 10:04:00,
2015-07-04 06:13:00,62.0,58.0,-100.00,West,265,2.0,6.0,85,-99.99,,,-99.99,,2015-07-04 10:13:00,
2015-07-04 06:23:00,62.0,58.0,-100.00,WNW,285,2.0,4.0,84,-99.99,,,-99.99,,2015-07-04 10:23:00,
2015-07-04 06:33:00,62.0,57.0,-100.00,West,280,3.0,4.0,82,-99.99,,,-99.99,,2015-07-04 10:33:00,
2015-07-04 06:43:00,62.0,57.0,-100.00,West,260,2.0,4.0,82,-99.99,,,-99.99,,2015-07-04 10:43:00,
2015-07-04 06:53:00,62.0,57.0,-100.00,WNW,295,1.0,3.0,81,-99.99,,,-99.99,,2015-07-04 10:53:00,
2015-07-04 07:03:00,62.0,57.0,-100.00,West,260,2.0,3.0,82,-99.99,,,-99.99,,2015-07-04 11:03:00,
2015-07-04 07:13:00,62.0,57.0,-100.00,West,275,1.0,4.0,82,-99.99,,,-99.99,,2015-07-04 11:13:00,
2015-07-04 07:23:00,63.0,57.0,-100.00,West,260,2.0,5.0,81,-99.99,,,-99.99,,2015-07-04 11:23:00,
2015-07-04 07:33:00,63.0,57.0,-100.00,WSW,245,3.0,4.0,82,-99.99,,,-99.99,,2015-07-04 11:33:00,
2015-07-04 07:44:00,63.0,57.0,-100.00,West,275,3.0,6.0,79,-99.99,,,-99.99,,2015-07-04 11:44:00,
2015-07-04 07:53:00,64.0,56.0,-100.00,NW,305,3.0,6.0,77,-99.99,,,-99.99,,2015-07-04 11:53:00,
2015-07-04 08:03:00,64.0,57.0,-100.00,West,265,3.0,6.0,76,-99.99,,,-99.99,,2015-07-04 12:03:00,
2015-07-04 08:13:00,64.0,56.0,-100.00,WNW,285,4.0,6.0,74,-99.99,,,-99.99,,2015-07-04 12:13:00,
2015-07-04 08:23:00,65.0,56.0,-100.00,WNW,290,4.0,6.0,72,-99.99,,,-99.99,,2015-07-04 12:23:00,
2015-07-04 08:34:00,65.0,56.0,-100.00,West,275,4.0,6.0,71,-99.99,,,-99.99,,2015-07-04 12:34:00,
2015-07-04 09:44:00,69.0,50.0,-100.00,WNW,300,4.0,7.0,50,-99.99,,,-99.99,,2015-07-04 13:44:00,
2015-07-04 09:53:00,69.0,50.0,-100.00,WNW,295,4.0,9.0,50,-99.99,,,-99.99,,2015-07-04 13:53:00,
2015-07-04 10:03:00,69.0,52.0,-100.00,WNW,295,6.0,9.0,53,-99.99,,,-99.99,,2015-07-04 14:03:00,
2015-07-04 10:12:00,70.0,50.0,-100.00,NW,305,6.0,9.0,49,-99.99,,,-99.99,,2015-07-04 14:12:00,
2015-07-04 10:23:00,70.0,51.0,-100.00,West,270,7.0,9.0,49,-99.99,,,-99.99,,2015-07-04 14:23:00,
2015-07-04 10:34:00,71.0,52.0,-100.00,WNW,290,4.0,9.0,50,-99.99,,,-99.99,,2015-07-04 14:34:00,
2015-07-04 10:43:00,71.0,52.0,-100.00,WNW,295,6.0,8.0,52,-99.99,,,-99.99,,2015-07-04 14:43:00,
2015-07-04 10:53:00,71.0,53.0,-100.00,NW,305,6.0,8.0,51,-99.99,,,-99.99,,2015-07-04 14:53:00,
2015-07-04 11:03:00,72.0,51.0,-100.00,NW,320,6.0,9.0,48,-99.99,,,-99.99,,2015-07-04 15:03:00,
2015-07-04 11:13:00,72.0,53.0,-100.00,NW,320,4.0,9.0,50,-99.99,,,-99.99,,2015-07-04 15:13:00,
2015-07-04 11:23:00,72.0,52.0,-100.00,NW,325,6.0,10.0,49,-99.99,,,-99.99,,2015-07-04 15:23:00,
2015-07-04 11:33:00,73.0,51.0,-100.00,West,260,6.0,9.0,46,-99.99,,,-99.99,,2015-07-04 15:33:00,
2015-07-04 11:53:00,73.0,51.0,-100.00,West,260,7.0,9.0,46,-99.99,,,-99.99,,2015-07-04 15:53:00,
2015-07-04 12:03:00,73.0,52.0,-100.00,WNW,290,4.0,9.0,46,-99.99,,,-99.99,,2015-07-04 16:03:00,
2015-07-04 12:13:00,74.0,52.0,-100.00,West,260,6.0,11.0,46,-99.99,,,-99.99,,2015-07-04 16:13:00,
2015-07-04 12:23:00,74.0,53.0,-100.00,NW,310,4.0,9.0,46,-99.99,,,-99.99,,2015-07-04 16:23:00,
2015-07-04 12:33:00,74.0,51.0,-100.00,WNW,290,4.0,9.0,45,-99.99,,,-99.99,,2015-07-04 16:33:00,
2015-07-04 12:53:00,75.0,52.0,-100.00,WNW,290,5.0,9.0,44,-99.99,,,-99.99,,2015-07-04 16:53:00,
2015-07-04 13:03:00,76.0,54.0,-100.00,NNW,335,2.0,8.0,46,-99.99,,,-99.99,,2015-07-04 17:03:00,
2015-07-04 13:13:00,77.0,53.0,-100.00,South,190,3.0,7.0,43,-99.99,,,-99.99,,2015-07-04 17:13:00,
2015-07-04 13:24:00,76.0,54.0,-100.00,ENE,75,2.0,6.0,45,-99.99,,,-99.99,,2015-07-04 17:24:00,
2015-07-04 13:34:00,76.0,53.0,-100.00,NW,310,1.0,12.0,44,-99.99,,,-99.99,,2015-07-04 17:34:00,
2015-07-04 13:54:00,76.0,50.0,-100.00,WSW,245,2.0,9.0,40,-99.99,,,-99.99,,2015-07-04 17:54:00,
2015-07-04 14:44:00,78.0,51.0,-100.00,WSW,250,3.0,10.0,38,-99.99,,,-99.99,,2015-07-04 18:44:00,
2015-07-04 14:54:00,78.0,50.0,-100.00,South,190,4.0,7.0,36,-99.99,,,-99.99,,2015-07-04 18:54:00,
2015-07-04 15:04:00,80.0,52.0,-100.00,SW,220,2.0,6.0,39,-99.99,,,-99.99,,2015-07-04 19:04:00,
2015-07-04 15:13:00,79.0,52.0,-100.00,West,265,6.0,9.0,39,-99.99,,,-99.99,,2015-07-04 19:13:00,
2015-07-04 15:23:00,78.0,51.0,-100.00,WSW,240,6.0,10.0,38,-99.99,,,-99.99,,2015-07-04 19:23:00,
2015-07-04 15:34:00,79.0,51.0,-100.00,WSW,255,5.0,9.0,38,-99.99,,,-99.99,,2015-07-04 19:34:00,
2015-07-04 15:44:00,80.0,52.0,-100.00,WSW,245,2.0,7.0,38,-99.99,,,-99.99,,2015-07-04 19:44:00,
2015-07-04 15:53:00,80.0,52.0,-100.00,West,280,2.0,9.0,37,-99.99,,,-99.99,,2015-07-04 19:53:00,
2015-07-04 16:04:00,82.0,52.0,-100.00,NNW,330,2.0,7.0,35,-99.99,,,-99.99,,2015-07-04 20:04:00,
2015-07-04 16:13:00,81.0,52.0,-100.00,SSE,165,4.0,9.0,35,-99.99,,,-99.99,,2015-07-04 20:13:00,
2015-07-04 16:23:00,81.0,51.0,-100.00,SW,235,4.0,9.0,35,-99.99,,,-99.99,,2015-07-04 20:23:00,
2015-07-04 16:34:00,83.0,54.0,-100.00,SW,220,3.0,8.0,36,-99.99,,,-99.99,,2015-07-04 20:34:00,
2015-07-04 16:43:00,81.0,54.0,-100.00,WSW,250,3.0,10.0,38,-99.99,,,-99.99,,2015-07-04 20:43:00,
2015-07-04 17:23:00,82.0,50.0,-100.00,WSW,250,2.0,7.0,33,-99.99,,,-99.99,,2015-07-04 21:23:00,
2015-07-04 17:33:00,81.0,51.0,-100.00,SSW,200,5.0,7.0,35,-99.99,,,-99.99,,2015-07-04 21:33:00,